Regional Weather Roundup
Issued by NWS Green Bay, WI

Home | Current Version | Previous Version | Graphics & Text | Print | Product List | Glossary Off
Versions: 1 2 3 4 5 6 7 8 9 10 11 12 13 14 15 16 17 18 19 20 21 22 23 24 25 26 27 28 29 30 31 32 33 34 35 36 37 38 39 40 41 42 43 44 45 46 47 48 49 50

000
ASUS43 KGRB 110810
RWRGRB

NORTH-CENTRAL AND NORTHEAST WISCONSIN REGIONAL WEATHER ROUNDUP
NATIONAL WEATHER SERVICE GREEN BAY WI
300 AM CDT FRI JUL 11 2014

WIZ005-009-010>012-018-019-110900-
NORTH CENTRAL WISCONSIN

CITY           SKY/WX    TMP DP  RH WIND       PRES   REMARKS
IRONWOOD       NOT AVBL
MANITOWISH WTR MOCLDY    63  62  94 S3        30.08S
ARBOR VITAE    MOCLDY    64  61  88 S7        30.10S
EAGLE RIVER    PTCLDY    60  59  95 CALM      30.10S
LAND O LAKES   PTCLDY    62  58  88 CALM      30.11S
RHINELANDER    PTCLDY    62  59  90 S3        30.11F
PHILLIPS       CLOUDY    65  61  88 S6        30.07F
ANTIGO         CLOUDY    59  58  96 S7        30.14S
TOMAHAWK       MOCLDY    62  59  91 CALM      30.10F
MERRILL        CLOUDY    63  61  94 SE5       30.11S
$$

WIZ013-073-110900-
NORTHEAST WISCONSIN

CITY           SKY/WX    TMP DP  RH WIND       PRES   REMARKS
IRON MOUNTAIN  MOCLDY    57  53  86 SE7       30.11F
MARINETTE      MOCLDY    63  48  59 S6        30.12F
OCONTO         CLOUDY    63  51  65 CALM      30.13S
$$

WIZ017-030-035>037-045-110900-
CENTRAL WISCONSIN

CITY           SKY/WX    TMP DP  RH WIND       PRES   REMARKS
MEDFORD        MOCLDY    63  60  91 S7        30.09F
WAUSAU         PTCLDY    66  61  84 S9        30.10S
MOSINEE        PTCLDY    63  63 100 S7        30.13S
MARSHFIELD     MOCLDY    62  60  93 S7        30.10F
WISC RAPIDS    PTCLDY    64  61  90 S5        30.13S
STEVENS POINT  PTCLDY    64  59  83 S7        30.13S
WAUPACA        PTCLDY    63  59  89 CALM      30.13F
SHAWANO        MOCLDY    63  55  76 CALM      30.13F
CLINTONVILLE   MOCLDY    61  55  82 S5        30.13S
$$

WIZ038-039-048-051-110900-
FOX VALLEY

CITY           SKY/WX    TMP DP  RH WIND       PRES   REMARKS
NWS GREEN BAY  CLOUDY    63  51  65 S8        30.15S
APPLETON       MOCLDY    63  52  67 S7        30.15S
OSHKOSH        MOCLDY    64  54  69 S12       30.14S
FOND DU LAC    MOCLDY    60  53  77 S7        30.16S
$$

WIZ022-050-052-110900-
EAST CENTRAL WISCONSIN

CITY           SKY/WX    TMP DP  RH WIND       PRES   REMARKS
STURGEON BAY   MOCLDY    63  46  55 S8        30.15S
MANITOWOC      MOCLDY    63  50  62 S5        30.16F
SHEBOYGAN      MOCLDY    57  53  86 CALM      30.17S
$$

LMZ563-521-522-541>543-110900-
LAKESHORE

STATION/POSITION TIME  TEMP    WIND        PRES    VSBY  WAVE
                       AIR SEA DIR/SP/G                  HT/PER
                 (UTC) (F)     (DEG/KT/KT) (MB)    (MI)  (FT/S)
SHEBOYGAN LKSHOR 0800   63     180/  7/  8 1021.7F
KEWAUNEE LKSHORE 0800   53     170/  6/  7 1021.7S
ALGOMA MARINA    0800          230/  8/  9   N/A
NORTHPORT PIER   0800   62     150/  6/  9 1020.7S
N MID LAKE BUOY  0800   59 55  200/ 12/ 14 1020.6F         1
SISTER BAY LKSHO 0700   60     160/  7/ 11   N/A
MENOMINEE LKSHOR 0800   67     170/ 10/ 13 1020.8S
$$


USA.gov is the U.S. government's official web portal to all federal, state and local government web resources and services.